| time (UTC) | temp F | wind direction | speed knots | gust knots | rain 1hr in | rain 24hr in | rain mn in | humidity % | barometer mb |
| 20260904123712 | 69 | 293 | 0.0 | 0.0 | 0.00 | 0.00 | 0.00 | 87 | 1008.3 |
| 20260904120710 | 70 | 293 | 0.0 | 0.9 | 0.00 | 0.00 | 0.00 | 85 | 1008.0 |
| 20260904115711 | 70 | 293 | 0.0 | 0.0 | 0.00 | 0.00 | 0.00 | 85 | 1007.8 |
| 20260904114711 | 71 | 293 | 0.0 | 0.0 | 0.00 | 0.00 | 0.00 | 85 | 1007.8 |
| 20260904112710 | 71 | 283 | 1.7 | 1.7 | 0.00 | 0.00 | 0.00 | 83 | 1007.6 |
| 20260904111710 | 72 | 255 | 0.9 | 1.7 | 0.00 | 0.00 | 0.00 | 82 | 1007.6 |
| 20260904110710 | 73 | 217 | 0.0 | 0.0 | 0.00 | 0.00 | 0.00 | 81 | 1007.4 |
| 20260904105711 | 73 | 217 | 0.9 | 2.6 | 0.00 | 0.00 | 0.00 | 82 | 1007.3 |
| 20260904104711 | 73 | 209 | 1.7 | 2.6 | 0.00 | 0.00 | 0.00 | 81 | 1007.4 |
| 20260904103711 | 74 | 215 | 1.7 | 2.6 | 0.00 | 0.00 | 0.00 | 81 | 1007.3 |
| 20260904102710 | 74 | 208 | 1.7 | 2.6 | 0.00 | 0.00 | 0.00 | 80 | 1007.3 |
| 20260904101710 | 74 | 207 | 2.6 | 5.2 | 0.00 | 0.00 | 0.00 | 80 | 1007.3 |
| 20260904100710 | 74 | 217 | 2.6 | 4.3 | 0.00 | 0.00 | 0.00 | 80 | 1007.2 |
| 20260904095710 | 74 | 214 | 3.5 | 4.3 | 0.00 | 0.00 | 0.00 | 79 | 1007.0 |
| 20260904094711 | 74 | 214 | 2.6 | 4.3 | 0.00 | 0.00 | 0.00 | 79 | 1006.9 |
| 20260904093711 | 74 | 215 | 1.7 | 2.6 | 0.00 | 0.00 | 0.00 | 78 | 1006.8 |
| 20260904092711 | 75 | 223 | 1.7 | 2.6 | 0.00 | 0.00 | 0.00 | 78 | 1006.8 |
| 20260904091710 | 75 | 216 | 2.6 | 4.3 | 0.00 | 0.00 | 0.00 | 78 | 1006.8 |
| 20260904085710 | 76 | 209 | 1.7 | 2.6 | 0.00 | 0.00 | 0.00 | 76 | 1006.4 |
| 20260904084710 | 76 | 232 | 0.0 | 0.0 | 0.00 | 0.00 | 0.00 | 74 | 1006.2 |
| 20260904083710 | 76 | 232 | 0.0 | 0.0 | 0.00 | 0.00 | 0.00 | 74 | 1006.3 |
| 20260904082710 | 77 | 198 | 0.0 | 2.6 | 0.00 | 0.00 | 0.00 | 73 | 1006.1 |
| 20260904081711 | 77 | 212 | 1.7 | 7.0 | 0.00 | 0.00 | 0.00 | 73 | 1006.0 |
| 20260904080710 | 77 | 193 | 2.6 | 6.1 | 0.00 | 0.00 | 0.00 | 73 | 1006.0 |
| 20260904075710 | 77 | 215 | 4.3 | 7.0 | 0.00 | 0.00 | 0.00 | 72 | 1006.0 |
| 20260904074712 | 78 | 192 | 3.5 | 7.0 | 0.00 | 0.00 | 0.00 | 72 | 1006.0 |
| 20260904073710 | 78 | 195 | 5.2 | 10.4 | 0.00 | 0.00 | 0.00 | 71 | 1006.0 |
| 20260904072710 | 78 | 180 | 7.0 | 13.0 | 0.00 | 0.00 | 0.00 | 71 | 1006.0 |
| 20260904071711 | 78 | 169 | 7.0 | 12.2 | 0.00 | 0.00 | 0.00 | 70 | 1005.9 |
| 20260904070710 | 78 | 195 | 8.7 | 13.0 | 0.00 | 0.00 | 0.00 | 70 | 1006.1 |
| 20260904065710 | 78 | 164 | 7.0 | 12.2 | 0.00 | 0.00 | 0.00 | 70 | 1005.9 |
| 20260904064710 | 79 | 196 | 7.0 | 10.4 | 0.00 | 0.00 | 0.00 | 70 | 1006.0 |
| 20260904063711 | 79 | 205 | 6.1 | 10.4 | 0.00 | 0.00 | 0.00 | 70 | 1006.0 |
| 20260904062710 | 79 | 207 | 5.2 | 10.4 | 0.00 | 0.00 | 0.00 | 69 | 1005.9 |
| 20260904061711 | 79 | 209 | 7.0 | 10.4 | 0.00 | 0.00 | 0.00 | 69 | 1005.9 |
| 20260904060711 | 79 | 189 | 6.1 | 10.4 | 0.00 | 0.00 | 0.00 | 70 | 1005.8 |
| 20260904055711 | 79 | 171 | 6.1 | 10.4 | 0.00 | 0.00 | 0.00 | 70 | 1005.8 |
| 20260904053711 | 80 | 169 | 5.2 | 10.4 | 0.00 | 0.00 | 0.00 | 70 | 1005.6 |
| 20260904052710 | 80 | 198 | 4.3 | 7.0 | 0.00 | 0.00 | 0.00 | 70 | 1005.6 |
| 20260904050711 | 81 | 177 | 3.5 | 7.8 | 0.00 | 0.00 | 0.00 | 69 | 1005.6 |
| 20260904045711 | 81 | 182 | 2.6 | 6.1 | 0.00 | 0.00 | 0.00 | 69 | 1005.6 |
| 20260904044711 | 81 | 177 | 2.6 | 5.2 | 0.00 | 0.00 | 0.00 | 68 | 1005.7 |
| 20260904043710 | 82 | 194 | 1.7 | 5.2 | 0.00 | 0.00 | 0.00 | 68 | 1005.9 |
| 20260904042711 | 82 | 186 | 1.7 | 6.1 | 0.00 | 0.00 | 0.00 | 68 | 1005.8 |
| 20260904041710 | 83 | 171 | 0.9 | 2.6 | 0.00 | 0.00 | 0.00 | 67 | 1005.9 |
| 20260904040710 | 83 | 191 | 2.6 | 12.2 | 0.00 | 0.00 | 0.00 | 67 | 1005.8 |
| 20260904035711 | 83 | 198 | 4.3 | 7.8 | 0.00 | 0.00 | 0.00 | 66 | 1005.7 |
| 20260904033710 | 84 | 150 | 2.6 | 8.7 | 0.00 | 0.00 | 0.00 | 65 | 1005.7 |
| 20260904032710 | 85 | 178 | 2.6 | 7.0 | 0.00 | 0.00 | 0.00 | 65 | 1005.8 |
| 20260904031711 | 85 | 149 | 1.7 | 5.2 | 0.00 | 0.00 | 0.00 | 65 | 1005.7 |
| 20260904030711 | 85 | 159 | 1.7 | 4.3 | 0.00 | 0.00 | 0.00 | 65 | 1005.8 |
| 20260904025710 | 86 | 164 | 1.7 | 7.0 | 0.00 | 0.00 | 0.00 | 65 | 1005.6 |
| 20260904024711 | 86 | 142 | 0.9 | 4.3 | 0.00 | 0.00 | 0.00 | 65 | 1005.6 |
| 20260904021710 | 87 | 142 | 2.6 | 5.2 | 0.00 | 0.00 | 0.00 | 64 | 1005.4 |
| 20260904020710 | 87 | 150 | 0.9 | 2.6 | 0.00 | 0.00 | 0.00 | 64 | 1005.3 |
| 20260904015711 | 88 | 63 | 0.9 | 1.7 | 0.00 | 0.00 | 0.00 | 63 | 1005.1 |
| 20260904014710 | 88 | 95 | 0.0 | 2.6 | 0.00 | 0.00 | 0.00 | 62 | 1004.9 |
| 20260904013710 | 89 | 123 | 2.6 | 6.1 | 0.00 | 0.00 | 0.00 | 62 | 1004.8 |
| 20260904012710 | 89 | 141 | 2.6 | 7.0 | 0.00 | 0.00 | 0.00 | 62 | 1004.7 |
| 20260904010710 | 90 | 145 | 1.7 | 6.1 | 0.00 | 0.00 | 0.00 | 60 | 1004.4 |
| 20260904005711 | 91 | 109 | 2.6 | 7.8 | 0.00 | 0.00 | 0.00 | 59 | 1004.3 |
| 20260904004711 | 92 | 155 | 3.5 | 7.8 | 0.00 | 0.00 | 0.00 | 57 | 1004.3 |
| 20260904003711 | 92 | 152 | 2.6 | 5.2 | 0.00 | 0.00 | 0.00 | 56 | 1004.4 |
| 20260904002711 | 93 | 173 | 2.6 | 6.1 | 0.00 | 0.00 | 0.00 | 55 | 1004.3 |
| 20260904001710 | 93 | 144 | 2.6 | 5.2 | 0.00 | 0.00 | 0.00 | 55 | 1004.2 |
| 20260904000711 | 93 | 157 | 2.6 | 6.1 | 0.00 | 0.00 | 0.00 | 55 | 1004.2 |
| 20260903235710 | 93 | 169 | 1.7 | 6.1 | 0.00 | 0.00 | 0.00 | 55 | 1004.2 |
| 20260903234711 | 94 | 178 | 3.5 | 7.8 | 0.00 | 0.00 | 0.00 | 54 | 1004.2 |
| 20260903233711 | 94 | 175 | 4.3 | 7.8 | 0.00 | 0.00 | 0.00 | 53 | 1004.2 |
| 20260903232710 | 95 | 196 | 5.2 | 10.4 | 0.00 | 0.00 | 0.00 | 53 | 1004.2 |
| 20260903231710 | 95 | 175 | 6.1 | 11.3 | 0.00 | 0.00 | 0.00 | 52 | 1004.1 |
| 20260903225711 | 96 | 188 | 6.1 | 10.4 | 0.00 | 0.00 | 0.00 | 51 | 1004.0 |
| 20260903224711 | 96 | 164 | 6.1 | 10.4 | 0.00 | 0.00 | 0.00 | 51 | 1003.8 |
| 20260903223711 | 96 | 182 | 5.2 | 10.4 | 0.00 | 0.00 | 0.00 | 52 | 1003.9 |
| 20260903222711 | 96 | 217 | 6.1 | 7.8 | 0.00 | 0.00 | 0.00 | 51 | 1003.9 |
| 20260903221710 | 96 | 198 | 4.3 | 8.7 | 0.00 | 0.00 | 0.00 | 53 | 1004.1 |
| 20260903220710 | 96 | 192 | 6.1 | 13.0 | 0.00 | 0.00 | 0.00 | 51 | 1004.1 |
| 20260903214710 | 96 | 214 | 7.8 | 10.4 | 0.00 | 0.00 | 0.00 | 51 | 1004.2 |
| 20260903213710 | 96 | 178 | 7.0 | 13.0 | 0.00 | 0.00 | 0.00 | 50 | 1004.3 |
| 20260903211711 | 96 | 199 | 6.1 | 12.2 | 0.00 | 0.00 | 0.00 | 50 | 1004.4 |
| 20260903210711 | 96 | 178 | 7.0 | 10.4 | 0.00 | 0.00 | 0.00 | 50 | 1004.4 |
| 20260903205711 | 95 | 207 | 4.3 | 17.4 | 0.00 | 0.00 | 0.00 | 50 | 1004.6 |
| 20260903204712 | 95 | 167 | 6.1 | 12.2 | 0.00 | 0.00 | 0.00 | 51 | 1004.6 |
| 20260903202711 | 95 | 142 | 7.8 | 12.2 | 0.00 | 0.00 | 0.00 | 51 | 1004.8 |
| 20260903201711 | 95 | 192 | 5.2 | 10.4 | 0.00 | 0.00 | 0.00 | 52 | 1004.7 |
| 20260903195711 | 94 | 205 | 2.6 | 13.0 | 0.00 | 0.00 | 0.00 | 55 | 1004.9 |
| 20260903194711 | 93 | 225 | 7.8 | 12.2 | 0.00 | 0.00 | 0.00 | 53 | 1004.9 |
| 20260903193710 | 93 | 200 | 6.1 | 13.0 | 0.00 | 0.00 | 0.00 | 52 | 1005.0 |
| 20260903192710 | 93 | 175 | 7.8 | 13.9 | 0.00 | 0.00 | 0.00 | 52 | 1005.0 |
| 20260903191710 | 93 | 184 | 7.8 | 13.0 | 0.00 | 0.00 | 0.00 | 53 | 1005.1 |
| 20260903190710 | 92 | 205 | 6.1 | 11.3 | 0.00 | 0.00 | 0.00 | 54 | 1005.0 |
| 20260903184710 | 91 | 219 | 8.7 | 14.8 | 0.00 | 0.00 | 0.00 | 55 | 1005.3 |
| 20260903183711 | 91 | 209 | 8.7 | 14.8 | 0.00 | 0.00 | 0.00 | 53 | 1005.5 |
| 20260903182711 | 91 | 217 | 7.8 | 13.9 | 0.00 | 0.00 | 0.00 | 56 | 1005.8 |
| 20260903181711 | 90 | 215 | 11.3 | 18.2 | 0.00 | 0.00 | 0.00 | 55 | 1006.0 |
| 20260903180711 | 90 | 217 | 8.7 | 17.4 | 0.00 | 0.00 | 0.00 | 56 | 1006.1 |
| 20260903175710 | 90 | 208 | 9.6 | 15.6 | 0.00 | 0.00 | 0.00 | 56 | 1006.0 |
| 20260903174710 | 90 | 211 | 11.3 | 20.9 | 0.00 | 0.00 | 0.00 | 56 | 1006.2 |
| 20260903173711 | 89 | 196 | 9.6 | 17.4 | 0.00 | 0.00 | 0.00 | 57 | 1006.1 |
| 20260903172711 | 89 | 164 | 8.7 | 15.6 | 0.00 | 0.00 | 0.00 | 56 | 1006.3 |
| 20260903170710 | 89 | 203 | 8.7 | 17.4 | 0.00 | 0.00 | 0.00 | 58 | 1006.5 |
| 20260903165711 | 89 | 203 | 7.8 | 14.8 | 0.00 | 0.00 | 0.00 | 58 | 1006.6 |
| 20260903164710 | 88 | 201 | 7.0 | 13.9 | 0.00 | 0.00 | 0.00 | 61 | 1006.5 |
| 20260903163710 | 87 | 178 | 7.8 | 13.0 | 0.00 | 0.00 | 0.00 | 61 | 1006.7 |
| 20260903161710 | 86 | 178 | 7.0 | 15.6 | 0.00 | 0.00 | 0.00 | 63 | 1006.7 |
| 20260903160711 | 85 | 180 | 7.0 | 10.4 | 0.00 | 0.00 | 0.00 | 61 | 1006.6 |
| 20260903155711 | 85 | 222 | 7.8 | 12.2 | 0.00 | 0.00 | 0.00 | 62 | 1006.4 |
| 20260903154711 | 85 | 173 | 6.1 | 11.3 | 0.00 | 0.00 | 0.00 | 63 | 1006.3 |
| 20260903153710 | 84 | 176 | 7.8 | 15.6 | 0.00 | 0.00 | 0.00 | 64 | 1006.3 |
| 20260903152710 | 84 | 194 | 8.7 | 14.8 | 0.00 | 0.00 | 0.00 | 64 | 1006.5 |
| 20260903150711 | 82 | 208 | 7.8 | 13.9 | 0.00 | 0.00 | 0.00 | 67 | 1006.3 |
| 20260903145710 | 81 | 229 | 8.7 | 13.9 | 0.00 | 0.00 | 0.00 | 67 | 1006.5 |
| 20260903142711 | 79 | 207 | 5.2 | 10.4 | 0.00 | 0.00 | 0.00 | 72 | 1007.1 |
| 20260903140711 | 77 | 205 | 2.6 | 6.1 | 0.00 | 0.00 | 0.00 | 75 | 1007.2 |
| 20260903135711 | 76 | 194 | 4.3 | 8.7 | 0.00 | 0.00 | 0.00 | 74 | 1006.9 |
| 20260903134710 | 77 | 194 | 5.2 | 7.0 | 0.00 | 0.00 | 0.00 | 74 | 1007.0 |
| 20260903133710 | 77 | 213 | 5.2 | 7.0 | 0.00 | 0.00 | 0.00 | 73 | 1007.0 |
| 20260903132710 | 76 | 234 | 4.3 | 7.0 | 0.00 | 0.00 | 0.00 | 74 | 1007.3 |
| 20260903131710 | 76 | 190 | 3.5 | 8.7 | 0.00 | 0.00 | 0.00 | 76 | 1007.2 |
| 20260903130710 | 75 | 204 | 5.2 | 7.8 | 0.00 | 0.00 | 0.00 | 76 | 1007.0 |
| 20260903125710 | 75 | 243 | 1.7 | 2.6 | 0.00 | 0.00 | 0.00 | 75 | 1007.0 |
| 20260903124711 | 75 | 267 | 1.7 | 2.6 | 0.00 | 0.00 | 0.00 | 74 | 1006.9 |